Location: Razines
(46.9756°N, 0.3778°E)
Time: 02:51:40
(UTC+00:00)

Daily predictions for brighter satellites

Satellite Brightness Start Highest point End
(mag) Time Altitude Azimuth Time Altitude Azimuth Time Altitude Azimuth
Cosmos 1461 2.7 00:01:56 10° NW 00:06:07 88° SW 00:06:31 72° SSE
Cosmos 1867 3.6 00:05:01 50° S 00:06:18 68° ESE 00:11:46 10° NE
Nadezhda 2 Rocket 4.5 00:00:59 10° NNW 00:07:08 71° W 00:09:13 43° SSW
Cosmos 2221 Rocket 3.5 00:06:47 64° SSE 00:07:21 76° E 00:11:46 10° NNE
Cosmos 1674 Rocket 3.8 00:06:55 49° ESE 00:07:26 52° E 00:11:38 10° NNE
USA 306 4.3 00:11:52 25° ESE 00:11:52 25° ESE 00:14:15 10° ENE
Cosmos 1674 2.5 00:10:51 86° NE 00:10:51 86° NE 00:14:34 10° N
Cosmos 1238 Rocket 3.0 00:09:48 10° N 00:12:06 49° NNE 00:12:06 49° NNE
USA 307 4.4 00:15:20 23° ESE 00:15:20 23° ESE 00:17:39 10° ENE
ATLAS CENTAUR R/B 2.4 00:09:38 10° NW 00:13:59 38° WSW 00:13:59 38° WSW
SL-16 R/B 4.4 00:16:09 10° ESE 00:18:12 12° E 00:20:16 10° ENE
Cosmos 2322 Rocket 4.2 00:16:38 10° W 00:21:01 23° NW 00:25:26 10° N
Cosmos 1980 4.4 00:20:38 35° SE 00:22:02 41° ESE 00:27:17 10° NE
ATLAS 5 CENTAUR R/B 3.1 00:08:47 10° NW 00:22:35 87° SW 00:24:39 35° SE
Cosmos 2333 Rocket 2.9 00:19:42 26° WSW 00:22:36 49° NW 00:28:07 10° NNE
Cosmos 468 4.4 00:17:30 10° NNW 00:22:45 84° ENE 00:24:28 44° SSE
CZ-4C R/B 3.0 00:15:42 10° NW 00:22:58 75° SW 00:27:52 28° SSE
Cosmos 1378 Rocket 3.5 00:22:19 60° SSE 00:22:59 73° E 00:27:25 10° NNE
Cosmos 2322 4.0 00:20:47 35° SW 00:23:12 65° WNW 00:28:56 10° NNE
Cosmos 1844 Rocket 4.3 00:22:09 10° WNW 00:25:51 18° W 00:26:33 18° WSW
USA 215 3.8 00:21:15 10° NE 00:27:40 59° NNW 00:34:04 10° WSW
NOSS 0 Rocket 4.1 00:29:23 41° S 00:31:29 63° ESE 00:37:39 10° NE
PSLV R/B 3.8 00:29:44 10° N 00:34:04 61° WNW 00:35:00 48° SW
Meteor 2-10 Rocket 4.4 00:32:45 10° N 00:38:18 49° ENE 00:41:17 25° SE
Cosmos 2151 Rocket 3.9 00:36:09 10° NNW 00:40:23 48° W 00:40:53 46° WSW
Cosmos 1975 Rocket 4.5 00:39:39 24° ESE 00:41:00 29° E 00:44:52 10° NNE
Cosmos 1745 Rocket 3.9 00:35:54 10° N 00:42:08 79° W 00:44:35 39° S
Okean 2 4.2 00:42:13 35° W 00:42:49 37° WNW 00:46:40 10° N
Cosmos 839 Rocket 4.2 00:37:00 10° NW 00:43:22 87° NE 00:49:12 18° SE
ADEOS Rocket 3.8 00:42:18 29° WSW 00:43:44 32° W 00:49:01 10° NNW
USA 308 3.3 00:44:46 45° SE 00:44:46 45° SE 00:48:31 10° ENE
Okean 2 Rocket 3.8 00:40:26 10° NNW 00:44:39 39° W 00:45:14 37° WSW
Cosmos 2219 Rocket 3.0 00:42:56 24° WSW 00:45:53 43° NW 00:51:14 10° NNE
Meteor 2-12 Rocket 4.4 00:43:38 10° N 00:49:45 87° E 00:52:26 36° S
Meteor 1-16 Rocket 4.4 00:44:04 10° NNW 00:49:57 66° W 00:52:02 40° SSW
GP-B 3.3 00:52:24 10° N 00:56:50 63° E 00:58:07 43° SSE
Lacrosse 5 3.0 00:58:31 26° SE 00:59:11 27° SE 01:03:27 10° ENE
CZ-2D R/B 3.3 00:55:04 10° NNE 00:59:54 33° E 01:02:28 22° SE
Cosmos 1300 2.5 00:57:11 10° N 01:00:59 88° E 01:01:27 67° SSE
SL-14 R/B 3.2 01:02:27 60° SW 01:02:55 68° W 01:06:48 10° N
ASTEX 1 4.5 00:59:10 10° NNW 01:03:32 33° WNW 01:05:07 27° WSW
USA 267 3.7 01:02:14 34° SSW 01:03:46 38° SW 01:09:48 10° WNW
Cosmos 883 Rocket 4.5 01:04:14 36° S 01:07:04 86° W 01:13:27 10° N
Cosmos 371 Rocket 3.3 01:06:03 43° SW 01:07:36 72° WNW 01:12:28 10° NNE
USA 305 2.7 01:07:08 57° SW 01:07:54 79° SE 01:12:05 10° ENE
Cosmos 2150 Rocket 4.0 01:06:08 39° SW 01:08:00 70° WNW 01:13:10 10° NNE
NOSS 2-2 (C) 4.4 01:03:39 10° NW 01:08:46 60° SW 01:12:46 25° SSE
USA 229 DEB 4.0 01:03:02 10° NW 01:10:17 59° WSW 01:15:06 24° SSE
USA 229 4.0 01:03:08 10° NW 01:10:23 60° WSW 01:15:15 24° SSE
Cosmos 2237 Rocket 2.2 01:11:28 37° SSW 01:13:49 87° WNW 01:19:34 10° NNE
COSMOS 2428 3.8 01:12:17 20° WSW 01:15:38 37° NW 01:20:55 10° NNE
Cosmos 405 Rocket 4.0 01:18:03 26° W 01:18:39 27° WNW 01:21:56 10° N
Cosmos 304 Rocket 3.7 01:17:17 43° SSW 01:18:54 88° WNW 01:23:45 10° NNE
Cosmos 1437 Rocket 3.8 01:16:04 10° NNW 01:19:16 29° W 01:19:16 29° W
SL-16 R/B 3.1 01:14:42 12° SE 01:20:24 57° ENE 01:26:31 10° N
Lacrosse 5 rocket 2.9 01:21:54 20° SE 01:22:05 20° SE 01:25:04 10° ENE
Cosmos 1125 Rocket 3.9 01:20:00 31° WSW 01:22:11 52° WNW 01:27:17 10° NNE
Okean 1 Rocket 3.9 01:19:20 10° NNW 01:23:21 34° W 01:24:05 32° WSW
SME Rocket 3.1 01:24:34 40° S 01:26:00 80° WSW 01:31:05 10° NNW
Cosmos 1953 3.4 01:22:39 10° NNW 01:26:08 29° W 01:26:26 28° W
Cosmos 2074 Rocket 4.5 01:22:21 10° N 01:28:35 58° ENE 01:33:59 14° SSE
Resurs 1-4 Rocket 2.4 01:24:01 10° NNE 01:29:15 60° ESE 01:31:56 28° S
Cosmos 2297 4.4 01:27:15 10° NNW 01:32:55 55° ENE 01:38:32 10° SE
Cosmos 1943 Rocket 2.5 01:27:19 10° NNW 01:33:00 68° ENE 01:38:39 10° SE
MOZ.5/SAFIR/RUBIN 5/SL-8 4.0 01:33:59 37° SSW 01:35:31 53° W 01:40:11 10° NNW
Cosmos 1709 Rocket 4.3 01:30:39 10° NNW 01:36:32 49° W 01:39:18 29° SSW
Cosmos 2315 Rocket 4.2 01:35:34 29° SSW 01:38:49 61° WNW 01:45:10 10° N
Cosmos 2184 Rocket 4.2 01:37:14 10° N 01:43:30 72° E 01:48:45 15° SSE
EO 1 Delta rocket 4.4 01:39:23 10° N 01:43:50 47° WNW 01:46:02 28° SW
Cosmos 2278 Rocket 3.1 01:39:01 10° NW 01:43:56 31° WSW 01:45:23 27° SW
ADEOS II 2.9 01:40:05 10° NNE 01:45:08 44° E 01:48:40 18° SSE
IDEFIX/ARIANE 42P 3.7 01:41:05 10° NNE 01:45:59 38° E 01:49:51 15° SSE
USA 306 3.2 01:47:33 24° W 01:49:57 62° NNW 01:54:06 10° NE
Cosmos 2084 Rocket 3.0 01:49:15 42° SW 01:50:28 85° SE 01:54:17 10° NE
Thor Agena Rocket 4.1 01:48:19 10° N 01:53:24 49° WNW 01:56:09 25° SW
USA 307 3.1 01:51:04 24° WSW 01:53:26 66° NNW 01:57:36 10° NE
ERBS 2.7 01:54:54 34° W 01:55:52 49° NNW 01:58:51 10° NE
NPP 3.6 01:51:51 10° NNE 01:57:18 84° ESE 02:00:35 25° SSW
Cosmos 2369 Rocket 3.3 01:52:48 10° NNW 01:58:11 44° NE 02:03:30 10° SE
SL-16 R/B 2.2 01:58:00 26° SSW 02:01:19 78° ESE 02:07:01 10° NNE
Cosmos 1455 Rocket 3.8 01:57:33 10° NNW 02:01:42 38° W 02:03:15 28° SW
Cosmos 614 Rocket 4.3 01:56:50 10° NNW 02:02:02 68° ENE 02:07:13 10° SSE
CZ-4 R/B 3.8 01:57:36 10° N 02:02:15 71° WNW 02:04:41 28° SSW
Cosmos 2228 4.4 01:58:10 10° N 02:02:15 37° ENE 02:06:18 10° SE
EO 1 Del DPAF 4.0 01:59:58 10° NNE 02:03:18 40° E 02:05:17 21° SSE
Meteor 1-28 Rocket 3.4 02:03:37 16° SSE 02:06:27 67° ENE 02:10:10 10° N
COSMOS 2455 3.4 02:04:48 20° S 02:08:49 51° ESE 02:14:38 10° NE
Cosmos 1536 Rocket 3.7 02:08:03 22° S 02:10:52 71° E 02:15:15 10° NNE
CZ-4C R/B 4.3 02:05:41 10° WNW 02:10:53 20° WSW 02:12:59 18° SW
Cosmos 1975 Rocket 4.3 02:16:47 21° WSW 02:18:48 29° WNW 02:22:45 10° N
Nadezhda 1 Rocket 4.1 02:15:05 16° S 02:20:19 83° E 02:26:38 10° N
Meteor 1-24 Rocket 4.0 02:17:04 22° SW 02:20:31 53° WNW 02:25:52 10° N
UNK 3.9 02:19:09 21° S 02:22:06 54° W 02:26:39 10° NNW
MSX 4.2 02:17:27 10° NNE 02:23:10 62° ESE 02:28:25 12° S
USA 308 3.7 02:20:30 12° W 02:24:09 47° NNW 02:28:13 10° NE
Cosmos 1455 2.5 02:21:58 10° NNW 02:25:32 46° W 02:27:22 24° SSW
Cosmos 1025 Rocket 4.2 02:23:55 20° WSW 02:25:59 30° WNW 02:29:48 10° N
MOS 1 Rocket 3.2 02:23:22 20° S 02:26:11 55° W 02:30:25 10° NNW
YAOGAN 11 4.4 02:23:44 20° S 02:26:37 51° W 02:31:02 10° NNW
Cosmos 1271 Rocket 2.6 02:25:34 10° NNW 02:29:23 82° WSW 02:32:45 13° S
Cosmos 1606 Rocket 4.3 02:29:10 10° N 02:33:31 53° ENE 02:37:47 10° SSE
CZ-2D R/B 2.9 02:35:01 10° N 02:39:59 38° WNW 02:43:47 16° SW
Lacrosse 5 2.1 02:37:42 16° WSW 02:41:49 70° NW 02:46:55 10° NE
Helios 1B rocket 3.8 02:40:31 10° NNE 02:44:14 34° E 02:47:57 10° SSE
Cosmos 2341 Rocket 4.3 02:39:55 10° N 02:46:19 75° E 02:52:43 10° SSE
USA 305 4.2 02:43:52 10° W 02:47:46 37° NNW 02:51:41 10° NE
Cosmos 2154 Rocket 4.3 02:43:34 10° NNW 02:49:43 53° W 02:55:48 10° SSW
BREEZE-M DEB (TANK) 3.8 02:47:13 15° SSW 02:50:28 30° SSE 02:52:50 10° E
Meteor 2-1 Rocket 4.4 02:45:04 10° N 02:50:52 79° ENE 02:56:31 10° SSE
Cosmos 407 Rocket 4.0 02:46:39 10° NNW 02:51:59 65° ENE 02:57:12 10° SSE
SL-8 Rocket 4.4 02:46:43 10° N 02:53:04 70° E 02:59:21 10° SSE
Cosmos 1943 3.7 02:50:48 10° S 02:56:22 59° ESE 03:01:57 10° NNE
Cosmos 1328 4.2 02:52:39 10° S 02:56:32 62° E 03:00:30 10° NNE
Helios 1A 3.6 02:53:26 13° SSW 02:56:52 38° W 03:00:51 10° NNW
Cosmos 2237 Rocket 4.1 02:54:41 10° W 02:58:44 20° NW 03:02:50 10° N
Genesis I 3.9 02:55:17 10° NNW 02:59:21 60° NE 03:03:17 10° SE
Lacrosse 5 rocket 1.5 02:57:25 14° WSW 03:00:44 65° NW 03:04:51 10° NE
Cosmos 1140 Rocket 3.6 02:57:39 10° NNW 03:02:57 83° ENE 03:08:12 10° SSE
SL-16 R/B 3.5 02:59:47 12° SSW 03:04:22 27° W 03:09:35 10° NW
Resurs 1-4 Rocket 3.6 03:04:38 10° N 03:08:39 23° WNW 03:12:39 10° WSW
Lacrosse 4 Rocket 4.0 03:06:26 10° SE 03:08:46 14° ESE 03:11:06 10° ENE
SeaSat 1 4.5 03:05:32 10° NE 03:09:24 23° ESE 03:13:14 10° SSE
Cosmos 1892 Rocket 3.9 03:05:53 10° S 03:10:19 71° E 03:14:48 10° NNE
Cosmos 1726 Rocket 3.5 03:08:41 10° NNW 03:13:08 79° W 03:17:30 10° S
Cosmos 1703 4.1 03:11:07 12° SW 03:14:26 36° WNW 03:18:05 10° N
Cosmos 1943 Rocket 3.5 03:12:06 10° NW 03:16:11 21° W 03:20:15 10° SSW
Cosmos 2263 4.2 03:11:38 10° NNW 03:17:17 68° WSW 03:22:56 10° SSE
FENGYUN 3A 4.2 03:12:03 10° NNE 03:17:24 61° ESE 03:22:42 10° S
NOSS 3-3 (A) 4.0 03:13:37 10° SSW 03:19:15 80° SE 03:25:48 10° NE
NOSS 3-3 (C) 4.0 03:13:44 10° SSW 03:19:22 79° SE 03:25:53 10° NE
ADEOS II 3.3 03:20:09 10° N 03:24:37 29° WNW 03:29:04 10° WSW
Cosmos 1825 4.2 03:22:02 10° SSE 03:25:11 27° E 03:28:22 10° NNE
IDEFIX/ARIANE 42P 3.6 03:20:48 10° N 03:25:29 33° WNW 03:30:09 10° SW
SL-24 DEB 4.3 03:21:59 10° S 03:26:44 80° W 03:31:28 10° N
ARIANE 5 R/B 3.4 03:22:42 10° NNE 03:27:38 50° E 03:32:29 10° S
CBERS-1 4.1 03:25:29 10° N 03:30:35 71° WNW 03:35:40 10° SSW
USA 307 4.5 03:29:47 10° WNW 03:33:34 32° N 03:37:21 10° ENE
Cosmos 2218 Rocket 4.0 03:28:40 10° NNW 03:34:53 71° W 03:41:08 10° S
MOS 1-B Rocket 4.0 03:32:25 10° S 03:37:54 56° W 03:43:35 10° NNW
DEBRIS 3.3 03:32:51 10° WNW 03:41:39 78° SSW 03:44:35 10° ESE
